Flag for Germany Weather past 2 weeks in Wismar, Mecklenburg-Western Pomerania, Germany

Now
80 °F

Scattered clouds.


Feels Like: 80 °F
Forecast: 63 / 80 °F
Wind: 3 mph from Southeast

Location: Schwerin

Current Time: Aug 1, 2014 at 4:01:00 PM

Latest Report: Aug 1, 2014 at 3:00 PM


Visibility: 41 mi

Pressure: 29.91 "Hg

Humidity: 38%

Dew point: 52 °F

Location of WismarLocation

Historic Weather in Wismar — Graph

°F

Wismar temperature yesterday

Maximum temperature yesterday: 74 °F (at 6:00 PM)
Minimum temperature yesterday: 58 °F (at 6:00 AM)
Average temperature yesterday: 66 °F

Past Weeks' High & Low Weather Summary

 TemperatureHumidityPressure
High87 °F (Jul 19, 5:00 PM)98% (Jul 28, 8:00 AM)30.18 "Hg (Jul 28, 8:00 AM)
Low58 °F (Jul 31, 6:00 AM)32% (Jul 19, 4:00 PM)29.73 "Hg (Jul 30, 6:00 AM)
Average72 °F69%29.96 "Hg
* Reported Jul 17 3:00 PM — Aug 1 3:00 PM, Wismar, Weather by CustomWeather, © 2014

Note: Actual official high and low records may vary slightly from our data, if they occured in-between our weather recording intervals... More about our weather records

Advertising

Wismar weather history for previous 24 hours

 ConditionsComfort  
Time TempWeatherWind HumidityBarometerVisibility
3:00 PM
Aug 1
80 °FScattered clouds.3 mph38%29.91 "Hg40 mi
2:00 PM78 °FPassing clouds.2 mph38%29.92 "Hg19 mi
1:00 PM77 °FPartly sunny.3 mph40%29.93 "Hg16 mi
12:00 PM76 °FOvercast.3 mph46%29.93 "Hg19 mi
11:00 AM74 °FScattered clouds.3 mph48%29.95 "Hg25 mi
10:00 AM72 °FPartly sunny.2 mph56%29.95 "Hg22 mi
9:00 AM68 °FPartly sunny.2 mph64%29.95 "Hg14 mi
8:00 AM64 °FPartly sunny.2 mph73%29.95 "Hg11 mi
7:00 AM62 °FPartly sunny.2 mph77%29.95 "Hg12 mi
6:00 AM60 °FSunny.2 mph81%29.95 "Hg14 mi
4:00 AM59 °FPassing clouds.1 mph88%29.96 "Hg10 mi
3:00 AM59 °FPassing clouds.1 mph87%29.96 "Hg10 mi
2:00 AM62 °FOvercast.1 mph81%29.96 "Hg12 mi
1:00 AM62 °FOvercast.1 mph82%29.97 "Hg11 mi
12:00 AM62 °FOvercast.1 mph85%29.97 "Hg11 mi
11:00 PM
Jul 31
64 °FOvercast.2 mph83%29.96 "Hg14 mi
10:00 PM66 °FPassing clouds.2 mph71%29.95 "Hg12 mi
9:00 PM69 °FPartly sunny.2 mph58%29.94 "Hg18 mi
8:00 PM72 °FPartly sunny.3 mph49%29.94 "Hg19 mi
7:00 PM73 °FPartly sunny.6 mph48%29.93 "Hg15 mi
6:00 PM74 °FScattered clouds.6 mph47%29.93 "Hg17 mi
5:00 PM73 °FPartly sunny.2 mph52%29.93 "Hg15 mi
4:00 PM73 °FOvercast.2 mph52%29.94 "Hg16 mi
Weather by CustomWeather, © 2014

See weather overviewHow to use our weather pages